Regional Weather Roundup
Issued by NWS

Home | Current Version | Previous Version | Text Only | Print | Product List | Glossary On
Versions: 1 2 3 4 5 6 7 8 9 10 11 12 13 14 15 16 17 18 19 20 21 22 23 24 25 26 27 28 29 30 31 32 33 34 35 36 37 38 39 40 41 42 43 44 45 46 47 48 49 50
000
ASUS44 KJAN 231203
RWRMS

MISSISSIPPI HOURLY WEATHER ROUNDUP
NATIONAL WEATHER SERVICE JACKSON MS
700 AM CDT THU OCT 23 2014

NOTE: "FAIR: INDICATES FEW OR NO CLOUDS BELOW 12,000 FEET WITH NO
SIGNIFICANT WEATHER AND/OR OBSTRUCTIONS TO VISIBILITY.

MSZ001>002-007>008-010>013-018>021-025>028-034>036-231300-
NORTHWEST MISSISSIPPI

CITY           SKY/WX    TMP DP  RH WIND       PRES   REMARKS
CLARKSDALE     FAIR      45  45 100 NW5       30.20R
CLEVELAND      FAIR      46  45  97 N3        30.18S
GREENWOOD      NOT AVBL
GREENVILLE     PTCLDY    47  44  90 NE5       30.17S
6HR MIN TEMP:  44; 6HR MAX TEMP:  48;

GRENADA          N/A    N/A N/A N/A MISG        N/A
OLIVE BRANCH   PTCLDY    43  43 100 CALM      30.20R
OXFORD         FAIR      37  37 100 CALM      30.19R
TUNICA         PTSUNNY   43  41  93 CALM      30.21R
$$

MSZ003>006-009-014>017-022>024-029>033-037>039-231300-
NORTHEAST MISSISSIPPI

CITY           SKY/WX    TMP DP  RH WIND       PRES   REMARKS
COLUMBUS AFB   PTCLDY    42  41  99 N1        30.15F
6HR MIN TEMP:  41; 6HR MAX TEMP:  44;

CORINTH        FAIR      36  36 100 CALM      30.17F
GOLDN TRIANGLE CLEAR     43  37  81 NE3       30.14S
STARKVILLE     FAIR      41  39  93 CALM      30.16R
TUPELO         CLEAR     40  37  89 NE8       30.16S WCI  34
6HR MIN TEMP:  39; 6HR MAX TEMP:  48;

$$

MSZ040-058-231300-
CENTRAL MISSISSIPPI

CITY           SKY/WX    TMP DP  RH WIND       PRES   REMARKS
JACKSON INTL   PTCLDY    44  41  89 CALM      30.14R
6HR MIN TEMP:  43; 6HR MAX TEMP:  52;

JACKSON HAWKNS CLEAR     44  42  93 CALM      30.14S
6HR MIN TEMP:  44; 6HR MAX TEMP:  56;

MERIDIAN KEY   CLEAR     41  39  93 CALM      30.14R
6HR MIN TEMP:  39; 6HR MAX TEMP:  47;

MERIDIAN NAS   PTCLDY    39  38  96 W5        30.14R
6HR MIN TEMP:  39; 6HR MAX TEMP:  49;

RAYMOND        FAIR      39  36  87 CALM      30.14S FOG
VICKSBURG      PTCLDY    46  44  93 CALM      30.15R
6HR MIN TEMP:  41; 6HR MAX TEMP:  49;

$$

MSZ059>079-231300-
SOUTH MISSISSIPPI

CITY           SKY/WX    TMP DP  RH WIND       PRES   REMARKS
BROOKHAVEN     FAIR      43  43 100 CALM      30.14S
COLUMBIA         N/A    N/A N/A N/A MISG        N/A
HATTIESBURG    CLEAR     42  41  96 CALM      30.13R
6HR MIN TEMP:  42; 6HR MAX TEMP:  50;

MCCOMB         CLEAR     50  44  80 NE6       30.11R
6HR MIN TEMP:  50; 6HR MAX TEMP:  56;

NATCHEZ        CLEAR     45  39  81 MISG      30.13S
6HR MIN TEMP:  43; 6HR MAX TEMP:  52;

PINE BELT      CLEAR     45  39  81 N5        30.13R
6HR MIN TEMP:  45; 6HR MAX TEMP:  54;

$$

MSZ080>082-231300-
COASTAL MISSISSIPPI

CITY           SKY/WX    TMP DP  RH WIND       PRES   REMARKS
BAY ST LOUIS   CLEAR     52  43  71 NE7       30.09
BILOXI         CLEAR     50  45  83 NE9       30.08R
6HR MIN TEMP:  50; 6HR MAX TEMP:  57;

PASCAGOULA     CLEAR     45  42  89 N5        30.09R
6HR MIN TEMP:  42; 6HR MAX TEMP:  51;

GULFPORT       CLEAR     50  44  80 NE6       30.08R
6HR MIN TEMP:  50; 6HR MAX TEMP:  56;

$$



USA.gov is the U.S. government's official web portal to all federal, state and local government web resources and services.